ARIANE 40 R/B

Last updated on Wed Sep 17 2025 00:02:15 GMT+0000 (Coordinated Universal Time)

1 22830U 93061H 25259.60315036 .00000167 00000+0 77349-4 0 9998 2 22830 98.5186 326.6730 0011875 81.5369 278.7160 14.32710695669173
UTC large
Height (km)
Speed (km/s)
/
Latitude / Longitude
Inclination (degrees)
Orbital Period (minutes)
Azimuth
Elevation
Range (km)
Doppler Factor

Next 0 passes for location: London (51.5072 / 0.1276)

Sorry there are no passes over London.